[[{"header":{"parameterUnit":"m.s-1","parameterCategory":1,"la1":30.2991,"la2":30.254,"lo1":-89.0895,"lo2":-89.0444,"dy":0.0017,"dx":0.0017,"nx":28,"ny":28,"refTime":"2023-08-04T21:00:00:Z","depth":0,"parameterNumber":2,"parameterNumberName":"U-component_of_WINDS"},"data":[0,0,0,0,0,0,0,0,0,0,0,0,0,0,0,0,0,0,0,0,0,0,0,0,0,0,0,0,0,0,0,0,0,0,0,0,0,0,0,0,0,0,0,0,0,0,0,0,0,0,0,0,0,0,0,0,0,0,4.5934,4.5935,0,4.6067,4.6068,4.607,4.6017,4.6014,4.6011,4.6008,4.6145,4.6152,4.6158,0,0,0,0,0,0,0,0,0,0,0,0,0,4.5636,4.5642,4.5934,4.5935,4.5937,4.6066,4.6068,4.607,4.6017,4.6014,4.601,4.6006,4.6143,4.6151,4.6159,0,0,0,0,0,0,0,0,0,0,0,0,0,4.5767,4.5644,4.5933,4.5926,4.5927,4.6066,4.6068,4.6071,4.6018,4.6014,4.6009,4.6005,4.6141,4.615,4.616,4.6314,0,0,4.619,4.6194,0,0,0,0,0,0,0,0,4.576,4.5778,4.5926,4.5927,4.5928,4.602,4.6014,4.6152,4.6019,4.5984,4.6008,4.6002,4.6108,4.612,4.6155,4.6321,4.6327,4.6191,4.6197,4.6201,4.6204,0,0,0,0,0,0,0,4.5751,4.5772,4.5986,4.5928,4.5929,4.5917,4.5931,4.604,4.607,4.5986,4.5983,4.5999,4.6107,4.6146,4.6158,4.6329,4.6191,4.62,4.6206,4.6209,4.6629,4.6634,0,0,0,0,0,0,4.5741,4.5765,4.5982,4.599,4.5831,4.5926,4.5941,4.5996,4.6069,4.6076,4.6003,4.5996,4.6131,4.6147,4.6163,4.6349,4.6201,4.621,4.6216,4.6624,4.663,4.6636,0,0,0,0,0,0,4.5735,4.5761,4.5977,4.5877,4.5903,4.5936,4.5998,4.6001,4.6039,4.6082,4.6087,4.6037,4.6128,4.6149,4.6277,4.6353,4.6215,4.6224,4.6617,4.6626,4.6633,4.6722,0,0,0,0,0,0,4.5727,4.5759,4.5818,4.5878,4.5909,4.6089,4.6002,4.6007,4.6056,4.6048,4.6114,4.6121,4.6126,4.6263,4.6287,4.6364,4.6232,4.6611,4.6621,4.663,4.6713,4.6732,4.6749,0,0,0,0,0,4.5716,4.5838,4.5821,4.5847,4.5982,4.6093,4.611,4.6114,4.6062,4.6122,4.6149,4.6119,4.6341,4.6276,4.6303,4.6384,4.6606,4.6618,4.663,4.6704,4.6728,4.6748,0,0,0,0,0,0,4.5785,4.5845,4.5827,4.5972,4.6028,4.6084,4.6159,4.6139,4.621,4.62,4.6202,4.6217,4.635,4.638,4.6307,4.6538,4.6466,4.6483,4.6513,4.6536,4.6554,4.6544,4.624,0,0,0,0,0,4.5817,4.5901,4.595,4.6073,4.6102,4.6126,4.6174,4.6172,4.623,4.6253,4.629,4.6348,4.6431,4.6485,4.6564,4.6717,4.6731,4.6786,4.6804,4.6818,4.6834,4.6918,4.6943,4.6674,4.6674,4.6674,0,0,4.5884,4.5928,4.5981,4.6088,4.6131,4.6218,4.6146,4.6242,4.6307,4.6268,4.6391,4.642,4.6485,4.6627,4.6691,4.6656,4.6911,4.6833,4.6845,4.6852,4.6932,4.6958,4.698,4.6682,4.6681,4.6679,0,0,4.6052,4.6093,4.62,4.6244,4.631,4.6325,4.6351,4.6411,4.6429,4.6552,4.6525,4.6603,4.6745,4.6793,4.6836,4.7022,4.6997,4.7048,4.7142,4.7224,4.7245,4.7264,4.7331,4.7355,4.7063,4.7063,4.7063,0,4.6127,4.6257,4.6258,4.6356,4.6404,4.6372,4.6481,4.6525,4.6613,4.6648,4.6607,4.6785,4.6827,4.6979,4.7025,4.706,4.7091,4.704,4.7242,4.7261,4.7278,4.7342,4.7367,4.7069,4.7068,4.7067,4.7067,0,4.6347,4.6438,4.6517,4.6603,4.666,4.6763,4.678,4.6838,4.6831,4.6851,4.6978,4.7026,4.7114,4.715,4.7144,4.7303,4.7279,4.724,4.7168,4.731,4.737,4.7394,4.7077,4.7075,4.7073,4.7072,0,0,4.6562,4.6646,4.6675,4.6714,4.6785,4.6856,4.6958,4.7043,4.7093,4.7156,4.7242,4.7364,4.7328,4.7377,4.7376,4.7448,4.7593,4.7401,4.7402,4.7435,4.7772,4.78,4.7829,4.7577,4.7582,4.7586,4.7766,0,4.6735,4.6913,4.6917,4.7081,4.7166,4.7137,4.7226,4.7279,4.7301,4.7376,4.74,4.7487,4.7433,4.7463,4.7533,4.7561,4.7661,4.7548,4.7658,4.7662,4.7643,4.786,4.7891,4.8059,4.779,4.7794,4.7797,0,4.696,4.703,4.7202,4.7261,4.7297,4.7377,4.7456,4.7528,4.7588,4.7599,4.7654,4.7642,4.7748,4.7672,4.7817,4.774,4.7786,4.7806,4.7813,4.7824,4.7738,4.7877,4.8112,4.8138,4.7833,4.7831,4.7828,0,4.71,4.7237,4.7358,4.7392,4.7463,4.752,4.7553,4.7608,4.766,4.7729,4.7763,4.7844,4.7888,4.7952,4.7963,4.7906,4.8109,4.8034,4.8122,4.8122,4.8166,4.8163,4.8412,4.8195,4.8194,4.8194,4.8193,0,4.7293,4.74,4.7421,4.7496,4.7615,4.7618,4.7737,4.7765,4.7814,4.7895,4.7875,4.795,4.796,4.8039,4.8048,4.8168,4.8188,4.82,4.8201,4.8202,4.8201,4.8232,4.8221,4.8201,4.8199,4.8198,4.8197,0,4.747,4.7488,4.7618,4.7675,4.7692,4.7777,4.7826,4.7898,4.7917,4.8019,4.8043,4.8074,4.8166,4.8183,4.8291,4.8298,4.844,4.843,4.842,4.8419,4.8506,4.8497,4.8784,4.8822,4.8579,4.8582,4.8584,0,4.7592,4.7674,4.7739,4.7791,4.7827,4.791,4.7963,4.7969,4.8025,4.81,4.8163,4.8252,4.8324,4.8472,4.8504,4.8587,4.8579,4.8674,4.8591,4.8589,4.8581,4.8576,4.8584,4.8689,4.8692,4.8694,4.8696,0,4.7808,4.7813,4.7888,4.7968,4.8031,4.8094,4.8154,4.8198,4.8213,4.8276,4.8369,4.8425,4.8535,4.8625,4.8707,4.8741,4.8722,4.8722,4.8746,4.8748,4.8739,4.8746,4.8463,4.8715,4.8713,4.8712,4.8711,4.871,4.7961,4.8032,4.809,4.8175,4.8221,4.8277,4.8348,4.8376,4.8453,4.8543,4.8542,4.8645,4.8703,4.8812,4.8852,4.8932,4.8902,4.8938,4.8947,4.8956,4.8965,4.8726,4.8948,4.8947,4.8946,4.8946,4.8946,0,4.8176,4.8211,4.829,4.8374,4.8442,4.8416,4.8481,4.854,4.863,4.8686,4.8757,4.8864,4.8951,4.899,4.9076,4.9132,4.9126,4.9155,4.9151,4.9159,4.8986,4.8956,4.9159,4.9159,4.9159,4.9159,4.9159,4.9159,4.8296,4.8415,4.8427,4.8569,4.8604,4.8703,4.8743,4.8795,4.884,4.896,4.9032,4.9057,4.9107,4.9196,4.9274,4.9283,4.9316,4.935,4.9355,4.9193,4.9171,4.9151,4.9123,4.9357,4.9357,4.9521,4.9523,4.9524]},{"header":{"parameterUnit":"m.s-1","parameterCategory":1,"la1":30.2991,"la2":30.254,"lo1":-89.0895,"lo2":-89.0444,"dy":0.0017,"dx":0.0017,"nx":28,"ny":28,"refTime":"2023-08-04T21:00:00:Z","depth":0,"parameterNumber":3,"parameterNumberName":"V-component_of_WINDS"},"data":[0,0,0,0,0,0,0,0,0,0,0,0,0,0,0,0,0,0,0,0,0,0,0,0,0,0,0,0,0,0,0,0,0,0,0,0,0,0,0,0,0,0,0,0,0,0,0,0,0,0,0,0,0,0,0,0,0,0,-1.7074,-1.7075,0,-1.7168,-1.7169,-1.717,-1.7198,-1.7198,-1.7197,-1.7197,-1.7293,-1.7296,-1.7299,0,0,0,0,0,0,0,0,0,0,0,0,0,-1.6919,-1.6922,-1.7074,-1.7075,-1.7076,-1.7168,-1.7169,-1.717,-1.7198,-1.7198,-1.7197,-1.7197,-1.7292,-1.7295,-1.7299,0,0,0,0,0,0,0,0,0,0,0,0,0,-1.6997,-1.6923,-1.7074,-1.7101,-1.7105,-1.7167,-1.7169,-1.7171,-1.7199,-1.7198,-1.7197,-1.7196,-1.7291,-1.7295,-1.73,-1.7341,0,0,-1.7313,-1.7315,0,0,0,0,0,0,0,0,-1.6993,-1.7003,-1.7096,-1.7099,-1.7103,-1.7171,-1.715,-1.7228,-1.7199,-1.7163,-1.7197,-1.7196,-1.7253,-1.726,-1.728,-1.7346,-1.735,-1.7314,-1.7316,-1.7318,-1.732,0,0,0,0,0,0,0,-1.6987,-1.6999,-1.7111,-1.7097,-1.7102,-1.7109,-1.7119,-1.7165,-1.7211,-1.7166,-1.7168,-1.7179,-1.7255,-1.7275,-1.7282,-1.7351,-1.7314,-1.7318,-1.732,-1.7322,-1.7457,-1.7458,0,0,0,0,0,0,-1.6977,-1.6994,-1.7108,-1.7114,-1.7045,-1.7112,-1.7124,-1.715,-1.721,-1.7219,-1.7179,-1.718,-1.7268,-1.7277,-1.7285,-1.7339,-1.7318,-1.7323,-1.7325,-1.7457,-1.7458,-1.7459,0,0,0,0,0,0,-1.6974,-1.6987,-1.7104,-1.7055,-1.707,-1.7116,-1.7145,-1.7152,-1.7172,-1.722,-1.7229,-1.7192,-1.7268,-1.7279,-1.7327,-1.7342,-1.7325,-1.7329,-1.7455,-1.7457,-1.7458,-1.7445,0,0,0,0,0,0,-1.6969,-1.6986,-1.7002,-1.7055,-1.7073,-1.7144,-1.7146,-1.7154,-1.718,-1.7182,-1.7234,-1.7242,-1.7268,-1.7321,-1.7332,-1.7348,-1.7332,-1.7454,-1.7456,-1.7458,-1.7444,-1.7445,-1.7447,0,0,0,0,0,-1.6964,-1.6994,-1.7002,-1.7016,-1.7094,-1.7145,-1.7155,-1.7184,-1.7181,-1.7198,-1.7229,-1.7241,-1.7339,-1.7325,-1.7338,-1.7356,-1.7454,-1.7456,-1.7458,-1.7443,-1.7445,-1.7447,0,0,0,0,0,0,-1.6941,-1.7002,-1.7011,-1.706,-1.7097,-1.715,-1.7172,-1.7185,-1.7224,-1.7224,-1.7258,-1.7269,-1.7315,-1.7341,-1.7324,-1.74,-1.7397,-1.7401,-1.7381,-1.7384,-1.7385,-1.7377,-1.7336,0,0,0,0,0,-1.6942,-1.6979,-1.7029,-1.7067,-1.7086,-1.7125,-1.7149,-1.7168,-1.7208,-1.7224,-1.7258,-1.7296,-1.7336,-1.7361,-1.74,-1.7448,-1.746,-1.7467,-1.7468,-1.7469,-1.7472,-1.75,-1.7503,-1.7465,-1.7465,-1.7465,0,0,-1.6944,-1.6982,-1.7002,-1.7064,-1.7095,-1.7132,-1.7138,-1.7177,-1.7205,-1.723,-1.7277,-1.7304,-1.7349,-1.7397,-1.742,-1.742,-1.7486,-1.7472,-1.7472,-1.7475,-1.7502,-1.7506,-1.7509,-1.7467,-1.7466,-1.7466,0,0,-1.6967,-1.6999,-1.7034,-1.7065,-1.7112,-1.7139,-1.7147,-1.7198,-1.7217,-1.7265,-1.7284,-1.7318,-1.7385,-1.7417,-1.7442,-1.7477,-1.7489,-1.7489,-1.7495,-1.7522,-1.7525,-1.7527,-1.754,-1.7544,-1.7492,-1.7492,-1.7492,0,-1.6963,-1.7019,-1.705,-1.7088,-1.7115,-1.7139,-1.7175,-1.7204,-1.7261,-1.7279,-1.7278,-1.7364,-1.7396,-1.7452,-1.746,-1.748,-1.7491,-1.7482,-1.7522,-1.7525,-1.7528,-1.754,-1.7545,-1.7492,-1.7492,-1.7492,-1.7492,0,-1.7013,-1.7052,-1.7075,-1.7129,-1.7159,-1.7196,-1.7232,-1.7258,-1.7275,-1.7302,-1.7351,-1.7391,-1.7438,-1.7453,-1.747,-1.7512,-1.751,-1.7515,-1.7512,-1.7531,-1.7543,-1.7548,-1.7491,-1.7491,-1.7492,-1.7492,0,0,-1.7023,-1.7095,-1.7102,-1.7128,-1.7182,-1.7213,-1.7251,-1.7298,-1.7319,-1.7359,-1.7392,-1.7449,-1.7454,-1.7482,-1.7503,-1.7526,-1.7551,-1.7528,-1.753,-1.753,-1.76,-1.7595,-1.76,-1.756,-1.7561,-1.7562,-1.7596,0,-1.7051,-1.712,-1.715,-1.7205,-1.7242,-1.7266,-1.7299,-1.7336,-1.7362,-1.7397,-1.7427,-1.7466,-1.747,-1.7487,-1.7511,-1.7543,-1.7565,-1.7541,-1.7591,-1.7592,-1.7578,-1.7606,-1.7601,-1.7631,-1.7601,-1.7601,-1.7602,0,-1.7094,-1.7133,-1.7193,-1.7243,-1.7259,-1.7289,-1.7334,-1.7367,-1.741,-1.7428,-1.7459,-1.7479,-1.752,-1.7516,-1.7573,-1.7556,-1.7578,-1.7597,-1.7599,-1.7604,-1.7597,-1.7612,-1.7642,-1.7646,-1.761,-1.7609,-1.7609,0,-1.7095,-1.7163,-1.7207,-1.7228,-1.7288,-1.7308,-1.7334,-1.7376,-1.7402,-1.7442,-1.746,-1.7504,-1.7528,-1.7562,-1.7593,-1.7587,-1.7648,-1.7646,-1.7663,-1.7663,-1.7674,-1.7673,-1.7708,-1.769,-1.769,-1.769,-1.769,0,-1.7124,-1.7159,-1.7208,-1.7235,-1.7276,-1.7309,-1.7348,-1.7376,-1.7413,-1.7447,-1.747,-1.7501,-1.7541,-1.7577,-1.7602,-1.7645,-1.7656,-1.7672,-1.7678,-1.7669,-1.7667,-1.7684,-1.7682,-1.7691,-1.7691,-1.769,-1.769,0,-1.7131,-1.7165,-1.7215,-1.7268,-1.7282,-1.7309,-1.7355,-1.7382,-1.741,-1.7451,-1.7463,-1.7507,-1.755,-1.7585,-1.7642,-1.7659,-1.7705,-1.7712,-1.769,-1.7693,-1.7709,-1.7707,-1.7755,-1.7763,-1.774,-1.774,-1.774,0,-1.7146,-1.7174,-1.723,-1.7254,-1.7279,-1.7318,-1.7345,-1.7379,-1.7407,-1.7458,-1.7479,-1.7524,-1.7562,-1.7631,-1.7667,-1.7711,-1.7719,-1.7733,-1.7726,-1.7717,-1.7719,-1.7717,-1.772,-1.7734,-1.7734,-1.7734,-1.7734,0,-1.7171,-1.7186,-1.7225,-1.7269,-1.7301,-1.7337,-1.7374,-1.7393,-1.7434,-1.7464,-1.7509,-1.7538,-1.7596,-1.7641,-1.7689,-1.7716,-1.7732,-1.7736,-1.7742,-1.7733,-1.772,-1.7727,-1.7691,-1.7734,-1.7734,-1.7734,-1.7734,-1.7734,-1.7182,-1.7208,-1.7251,-1.7293,-1.7325,-1.7359,-1.7388,-1.7419,-1.7457,-1.7507,-1.7525,-1.7571,-1.7614,-1.768,-1.7707,-1.7744,-1.7745,-1.7755,-1.7757,-1.7758,-1.7757,-1.7714,-1.7753,-1.7753,-1.7753,-1.7753,-1.7753,0,-1.7207,-1.7236,-1.7275,-1.7326,-1.7359,-1.7372,-1.7414,-1.744,-1.748,-1.7519,-1.7556,-1.7608,-1.7651,-1.7692,-1.7738,-1.7759,-1.7768,-1.777,-1.7768,-1.7774,-1.7754,-1.7743,-1.7762,-1.7762,-1.7762,-1.7762,-1.7762,-1.7762,-1.7224,-1.7268,-1.7289,-1.735,-1.7379,-1.7424,-1.7447,-1.7479,-1.751,-1.7566,-1.7603,-1.7629,-1.7669,-1.7718,-1.7758,-1.7769,-1.7785,-1.7785,-1.7798,-1.7777,-1.7776,-1.7774,-1.7765,-1.7788,-1.7788,-1.7815,-1.7816,-1.7816]}]]